Location: B�hl
(48.6968°N, 8.1352°E)
Time: 10:46:02
(UTC+00:00)

NOSS 3-2 (C) - Pass Details

Date: 08 March 2021
Orbit: 783 x 1429 km, 63.4° (Epoch: 04 April)

Event Time Altitude Azimuth Distance (km) Brightness Sun altitude
Rises 18:56:47 0° 190° (S) 3,315 6.3 -16.3°
Reaches altitude 10° 18:59:16 10° 182° (S) 2,435 5.5 -16.7°
Maximum altitude 19:04:20 36° 116° (ESE) 1,377 3.8 -17.6°
Enters shadow 19:08:13 18° 61° (ENE) 2,153 4.9 -18.2°
